{"data":{"norad_id":65974,"intl_designator":"2025-230A","name":"SDA_1664","alt_names":[],"object_type":"PAYLOAD","status":"ACTIVE","operator":null,"country":"US","launch_date":"2025-10-15","launch_site_code":"AFWTR","launch_vehicle":null,"mission":null,"orbit_class":"UNKNOWN","rcs_meters":null,"size_class":null,"mass_kg":null,"dimensions":null,"purposes":[],"wikipedia_slug":null,"has_3d_model":false,"image_url":null,"decayed_at":null,"tle_current":{"epoch":"2026-05-24T15:36:32.817312Z","epoch_age_seconds":115575,"freshness":"FRESH","line1":"1 65974U 25230A   26144.65037983  .00000174  00000+0  15674-3 0  9998","line2":"2 65974  81.3003 233.9486 0001300 102.8407 257.2892 13.79935666 30529","mean_motion":13.79935666,"eccentricity":0.00013,"inclination_deg":81.3003,"raan_deg":233.9486,"arg_perigee_deg":102.8407,"mean_anomaly_deg":257.2892,"bstar":0.00015674,"rev_number":3052,"period_min":104.35269088842,"perigee_km":963.16042847254,"apogee_km":965.06941397206,"semimajor_km":7342.2519212223,"source":"CELESTRAK","updated_at":"2026-05-25T13:38:05.875888Z"}}}